Simultaneous Nadir Overpasses (SNOs) Predictions

Prediction of SNOs between GOES-16 and METOP-A Satellite Orbit:

Table of predicted SNOs for the next 14.0 days since TLE Epoch: 12/5/2020
Index Date Time (GOES-16) GOES-16 Lat,Lon METOP-A Lat,Lon Distance(km) Time Diff (sec)
1 12/06/2020 13:26:27 -0.02, -75.24 -0.11, -74.84 45.96 80
2 12/08/2020 01:45:27 0.02, -75.21 -0.92, -79.47 485.15 80
3 12/09/2020 01:22:07 0.02, -75.22 0.19, -74.49 82.76 80
4 12/10/2020 13:40:59 -0.02, -75.27 0.83, -79.09 435.48 80
5 12/11/2020 13:22:59 -0.02, -75.27 -0.28, -74.11 132.70 80
6 12/13/2020 01:42:00 0.02, -75.25 -0.75, -78.74 397.63 80
7 12/14/2020 01:18:40 0.01, -75.26 0.36, -73.77 170.71 80
8 12/15/2020 13:37:31 -0.01, -75.31 0.66, -78.36 346.90 80
9 12/16/2020 13:19:32 -0.00, -75.33 -0.46, -73.39 221.83 80
10 12/18/2020 01:38:32 -0.00, -75.31 -0.57, -78.02 307.45 80
11 12/19/2020 01:15:12 -0.00, -75.33 0.49, -73.03 261.68 80
